Header for Extended Forecast Station List Page

Search by: ID | Name | Date | Parm | Value | Avg | % Avg
Sort by: ID | Name | Date | Parm | Value | Avg | % Avg

Enter search or view all records.

Click on id for station plot
#IDNameDateParmValueAvg% Avg
0LYDM8KOOTENAI-LIBBY DAM12-15-2014INFLOW (KAF)946804118
1LEOI1KOOTENAI-AT LEONIA12-15-2014DISCHARGE (KAF)20201343150
2BFEI1KOOTENAI-AT BONNERS FERRY12-15-2014STAGE (FT)MMM
3FCFM8NF FLATHEAD-NEAR COLUMBIA FALLS12-15-2014DISCHARGE (KAF)218184119
4WGCM8MF FLATHEAD-NEAR WEST GLACIER12-15-2014DISCHARGE (KAF)185166112
5HHWM8SF FLATHEAD-HUNGRY HORSE DAM12-15-2014INFLOW (KAF)23027484
6CFMM8FLATHEAD-AT COLUMBIA FALLS12-15-2014DISCHARGE (KAF)1067118190
7DLGM8CLARK FORK-AT DEER LODGE12-15-2014DISCHARGE (KAF)576391
8DRMM8CLARK FORK-NR DRUMMOND12-15-2014DISCHARGE (KAF)144MM
9RCCM8ROCK CREEK-NEAR CLINTON12-15-2014DISCHARGE (KAF)5747121
10BONM8BLACKFOOT-NEAR BONNER12-15-2014DISCHARGE (KAF)14215194
11ABOM8CLARK FORK-ABOVE MISSOULA12-15-2014DISCHARGE (KAF)35736897
12BITM8BITTERROOT-NEAR MISSOULA12-15-2014DISCHARGE (KAF)23824597
13BELM8CLARK FORK-BELOW MISSOULA12-15-2014DISCHARGE (KAF)59561896
14STRM8ST. REGIS-NEAR ST. REGIS12-15-2014DISCHARGE (KAF)396560
15SRGM8CLARK FORK-AT ST REGIS12-15-2014DISCHARGE (KAF)77784492
16KERM8FLATHEAD-KERR DAM12-15-2014INFLOW (KAF)1286155483
17NOXM8CLARK FORK-NOXON RAPIDS DAM12-15-2014INFLOW (KAF)3007378579
18CABI1CLARK FORK-CABINET GORGE DAM12-15-2014INFLOW (KAF)3331395984
19PRTI1PRIEST-NEAR PRIEST RIVER12-15-2014DISCHARGE (KAF)267242110
20ALFW1PEND OREILLE-ALBENI FALLS DAM12-15-2014INFLOW (KAF)3669472078
21HOPI1PEND OREILLE-PEND OREILLE LAKE NR HOPE12-15-2014LAKE ELEVATION (FT)MMM
22COEI1COEUR D ALENE-COEUR D ALENE LAKE12-15-2014INFLOW (KAF)1139137683
23SPOW1SPOKANE-AT SPOKANE12-15-2014DISCHARGE (KAF)1092MM
24LLKW1SPOKANE-AT LONGLAKE12-15-2014INFLOW (KAF)1368185074
25SATI1ST MARIES-NEAR SANTA12-15-2014DISCHARGE (KAF)608272
26SJMI1ST JOE-AT ST MARIES12-15-2014STAGE (FT)MMM
27CIBW1COLUMBIA-AT INTL BOUNDARY12-15-2014DISCHARGE (KAF)19380MM
28LAUW1KETTLE-AT LAURIER12-15-2014DISCHARGE (KAF)221185119
29GCDW1COLUMBIA-GRAND COULEE DAM12-15-2014INFLOW (KAF)2106717085123
30CHJW1COLUMBIA-CHIEF JOSEPH DAM12-15-2014INFLOW (KAF)2414722975105
31TONW1OKANOGAN-NEAR TONASKET12-15-2014DISCHARGE (KAF)24430680
32PATW1METHOW-NEAR PATEROS12-15-2014DISCHARGE (KAF)11011397
33WELW1COLUMBIA-WELLS DAM12-15-2014INFLOW (KAF)2450723374105
34CHDW1CHELAN-LAKE CHELAN DAM12-15-2014INFLOW (KAF)245186131
35RRHW1COLUMBIA-ROCKY REACH DAM12-15-2014INFLOW (KAF)2506823937105
36ARDW1ENTIAT-NEAR ARDENVOIR12-15-2014DISCHARGE (KAF)3625141
37PESW1WENATCHEE-AT PESHASTIN12-15-2014DISCHARGE (KAF)384349110
38WANW1COLUMBIA-WANAPUM DAM12-15-2014INFLOW (KAF)2553221066121
39PRWW1COLUMBIA-PRIEST RAPIDS DAM12-15-2014INFLOW (KAF)2553521365120
40KEDW1YAKIMA-KEECHELUS LAKE12-15-2014INFLOW (KAF)5352103
41KADW1KACHESS-KACHESS DAM12-15-2014INFLOW (KAF)505297
42EASW1YAKIMA-AT EASTON12-15-2014DISCHARGE (KAF)9987114
43CLUW1CLE ELUM-CLE ELUM LAKE12-15-2014INFLOW (KAF)10411591
44TNAW1TEANAWAY-BELOW FORKS12-15-2014DISCHARGE (KAF)627583
45UMTW1YAKIMA-AT UMTANUM12-15-2014DISCHARGE (KAF)364362101
46BUDW1BUMPING-BUMPING LAKE DAM12-15-2014INFLOW (KAF)323886
47CLFW1NACHES-NEAR CLIFFDEL12-15-2014DISCHARGE (KAF)11914284
48RILW1TIETON-RIMROCK LAKE NEAR RIMROCK12-15-2014INFLOW (KAF)677787
49NACW1NACHES-NEAR NACHES12-15-2014DISCHARGE (KAF)173135128
50PARW1YAKIMA-NEAR PARKER12-15-2014DISCHARGE (KAF)51059087
51KIOW1YAKIMA-AT KIONA12-15-2014DISCHARGE (KAF)70788380
52IPDI1HENRYS FORK-ISLAND PARK DAM12-15-2014INFLOW (KAF)7911171
53CHEI1FALL RIVER-NEAR CHESTER12-15-2014DISCHARGE (KAF)122110111
54ANTI1HENRYS FORK-AT ST. ANTHONY12-15-2014DISCHARGE (KAF)29135083
55TEAI1TETON-NEAR ST. ANTHONY12-15-2014DISCHARGE (KAF)10010199
56REXI1HENRYS FORK-AT REXBURG12-15-2014DISCHARGE (KAF)36743485
57JLKW4SNAKE-JACKSON LAKE AT DAM12-15-2014INFLOW (KAF)10611990
58JKSW4SNAKE-NEAR JACKSON12-15-2014DISCHARGE (KAF)346309112
59ALPW4SNAKE-NEAR ALPINE12-15-2014DISCHARGE (KAF)433382113
60PLDI1SF SNAKE-PALISADES DAM12-15-2014INFLOW (KAF)652621105
61HEII1SNAKE-NEAR HEISE12-15-2014DISCHARGE (KAF)40558769
62RIDI1WILLOW CREEK-RIRIE DAM12-15-2014INFLOW (KAF)121388
63SIFI1SNAKE-AB EAGLE ROCK NR IDAHO FALLS12-15-2014DISCHARGE (KAF)59483771
64SHYI1SNAKE-NEAR SHELLEY12-15-2014DISCHARGE (KAF)57085367
65SNAI1SNAKE-AT BLACKFOOT12-15-2014DISCHARGE (KAF)48677563
66BFTI1SNAKE-NEAR BLACKFOOT12-15-2014DISCHARGE (KAF)48482659
67PIHI1PORTNEUF-AT POCATELLO12-15-2014DISCHARGE (KAF)467958
68AFRI1SNAKE-AMERICAN FALLS RESERVOIR12-15-2014INFLOW (KAF)1156154975
69MILI1SNAKE-AT MILNER12-15-2014DISCHARGE (KAF)267673
70HOTI1BRUNEAU-NEAR HOT SPRINGS12-15-2014DISCHARGE (KAF)274955
71SWAI1SNAKE-BELOW SWAN FALLS12-15-2014DISCHARGE (KAF)1680272162
72HWRI1BIG LOST-AT HOWELL RANCH NEAR CHILLY12-15-2014DISCHARGE (KAF)121964
73MACI1BIG LOST-MACKAY RESERVOIR NEAR MACKAY12-15-2014INFLOW (KAF)226384
74HALI1BIG WOOD-AT HAILEY12-15-2014DISCHARGE (KAF)344183
75MAGI1BIG WOOD-MAGIC DAM12-15-2014INFLOW (KAF)466570
76LWRI1LITTLE WOOD-LITTLE WOOD DAM12-15-2014INFLOW (KAF)152169
77OWYO3OWYHEE-BELOW OWYHEE DAM12-15-2014INFLOW (KAF)20121892
78ARAI1SF BOISE-ANDERSON RANCH DAM12-15-2014INFLOW (KAF)10211688
79LUCI1BOISE-LUCKY PEAK DAM12-15-2014INFLOW (KAF)388MM
80BIGI1BOISE-AT GLENWOOD BRIDGE12-15-2014DISCHARGE (KAF)17963283
81PARI1BOISE-NEAR PARMA12-15-2014DISCHARGE (KAF)339235144
82WRMO3MALHEUR-WARM SPRINGS DAM12-15-2014INFLOW (KAF)6964108
83BERO3MALHEUR-AGENCY VALLEY DAM12-15-2014INFLOW (KAF)333595
84BULO3BULLY CREEK-BULLY CREEK DAM12-15-2014INFLOW (KAF)219235
85VALO3MALHEUR-NEAR VALE12-15-2014DISCHARGE (KAF)144630
86CSDI1NF PAYETTE-CASCADE DAM12-15-2014INFLOW (KAF)10012679
87DEDI1DEADWOOD-NEAR LOWMAN12-15-2014INFLOW (KAF)162177
88EMMI1PAYETTE-NEAR EMMETT12-15-2014DISCHARGE (KAF)38250476
89WSRI1WEISER-NEAR WEISER12-15-2014DISCHARGE (KAF)318229139
90WEII1SNAKE-AT WEISER12-15-2014DISCHARGE (KAF)2863432066
91BRNI1SNAKE-BROWNLEE DAM12-15-2014INFLOW (KAF)3169455770
92WHBI1SALMON-AT WHITEBIRD12-15-2014DISCHARGE (KAF)1100116295
93TRYO3GRANDE RONDE-TROY12-15-2014DISCHARGE (KAF)41459270
94ANAW1SNAKE-NEAR ANATONE12-15-2014DISCHARGE (KAF)5249709974
95ORFI1CLEARWATER-AT OROFINO12-15-2014DISCHARGE (KAF)1070116792
96DWRI1NF CLEARWATER-DWORSHAK DAM12-15-2014INFLOW (KAF)86992094
97SPDI1CLEARWATER-AT SPALDING12-15-2014DISCHARGE (KAF)24812417103
98LGDW1SNAKE-LOWER GRANITE DAM12-15-2014INFLOW (KAF)7730966780
99LGSW1SNAKE-LITTLE GOOSE DAM12-15-2014INFLOW (KAF)7728972679
100LMNW1SNAKE-LOWER MONUMENTAL DAM12-15-2014INFLOW (KAF)8064998981
101IHDW1SNAKE-ICE HARBOR DAM12-15-2014INFLOW (KAF)8064990781
102TCHW1WALLA WALLA-NEAR TOUCHET12-15-2014DISCHARGE (KAF)225204111
103MCDW1COLUMBIA-MCNARY DAM12-15-2014INFLOW (KAF)3451233434103
104GIBO3UMATILLA-NEAR GIBBON12-15-2014DISCHARGE (KAF)6659111
105PDTO3UMATILLA-AT PENDLETON12-15-2014DISCHARGE (KAF)186155120
106MYKO3MCKAY CREEK-NEAR PILOT ROCK12-15-2014DISCHARGE (KAF)7336204
107UMAO3UMATILLA-NEAR UMATILLA12-15-2014DISCHARGE (KAF)205157130
108MONO3NF JOHN DAY-AT MONUMENT12-15-2014DISCHARGE (KAF)22530674
109SERO3JOHN DAY-AT SERVICE CK12-15-2014DISCHARGE (KAF)38248778
110JDAO3COLUMBIA-JOHN DAY DAM12-15-2014INFLOW (KAF)3627335282103
111MODO3DESCHUTES-AT MOODY NR BIGGS12-15-2014DISCHARGE (KAF)1560157999
112TDAO3COLUMBIA-THE DALLES DAM12-15-2014INFLOW (KAF)369933928194
113PITW1KLICKITAT-NEAR PITT12-15-2014DISCHARGE (KAF)444415107
114HODO3HOOD-NEAR TUCKER BRIDGE12-15-2014DISCHARGE (KAF)333280119
115UNDW1WHITE SALMON-NEAR UNDERWOOD12-15-2014DISCHARGE (KAF)326318102
116BONO3COLUMBIA-BONNEVILLE DAM12-15-2014INFLOW (KAF)38087MM